#timestamp,LO_Frequency,Hit,StdDev 
1620360015.2,286046997.1,N
1620360035.1,286046999.7,N
1620360036.0,286046999.7,N
1620360055.8,286047000.1,N
1620360075.6,286046999.9,N
1620360095.5,286047002.4,N
1620360115.3,286046998.4,N
1620360135.1,286047000.8,N
1620360155.9,286047000.2,N
1620360175.7,286047002.2,N
1620360195.6,286047001.6,N
1620360215.4,286047002.3,N
1620360235.2,286046998.3,N
1620360255.1,286047000.7,N
1620360256.0,286047000.7,N
1620360275.8,286047000.0,N
1620360295.7,286047002.2,N
1620360315.5,286047001.8,N
1620360335.3,286047001.6,N
1620360355.2,286047002.5,N
1620360375.0,286047005.8,N
1620360375.9,286047005.8,N
1620360395.7,286047005.6,N
1620360415.6,286047002.4,N
1620360435.4,286047000.5,N
1620360455.3,286047000.1,N
1620360475.1,286047000.5,N
1620360495.8,286047001.1,N
1620360515.7,286047000.7,N
1620360535.5,286047000.6,N
1620360555.4,286047000.7,N
1620360575.2,286047002.4,N
1620360595.0,286047000.6,N
1620360595.9,286047000.6,N
1620360615.8,286047000.6,N
1620360635.6,286047000.5,N
1620360655.5,286047000.9,N
1620360675.3,286047000.5,N
1620360695.1,286047001.0,N
1620360715.9,286047000.4,N
1620360735.7,286047000.9,N
1620360755.6,286046999.7,N
1620360775.4,286047002.1,N
1620360795.2,286047002.7,N
1620360815.1,286047000.4,N
1620360816.0,286047000.4,N
1620360835.8,286047000.4,N
1620360855.7,286047000.2,N
1620360875.5,286046998.6,N
1620360895.3,286047000.7,N
1620360915.2,286047001.0,N
1620360935.0,286047000.6,N
1620360935.9,286047000.6,N
1620360955.7,286047000.3,N
1620360975.6,286047004.3,Y
1620360995.4,286047001.9,P
1620361015.3,286047001.9,P
1620361035.1,286047001.0,N
1620361055.8,286047002.3,Y
1620361075.7,286047002.3,P
1620361095.5,286046999.8,N
1620361115.4,286047002.5,N
1620361135.2,286047002.5,N
1620361155.0,286046999.7,N
1620361155.9,286046999.7,N
1620361175.8,286047004.0,Y
1620361195.6,286046998.1,P
1620361215.5,286046998.8,N
1620361235.3,286046998.9,N
1620361255.1,286046998.3,N
1620361275.9,286046998.9,N
1620361295.7,286046999.8,N
1620361315.6,286046998.6,N
1620361335.4,286046998.8,N
1620361355.2,286046999.0,N
1620361375.1,286046996.5,Y
1620361376.0,286046996.5,P
1620361395.8,286046999.5,N
1620361415.6,286047000.4,N
1620361435.5,286047000.9,N
1620361455.3,286046996.8,N
1620361475.2,286046999.8,N
1620361495.9,286047000.6,N
1620361515.7,286047000.8,N
1620361535.6,286047000.9,N
1620361555.4,286046996.5,N
1620361575.3,286046996.6,N
1620361595.1,286046998.8,N
1620361615.8,286046998.7,N
1620361635.7,286046996.8,N
1620361655.5,286046996.6,N
1620361675.4,286047000.7,N
1620361695.2,286046999.8,N
1620361715.0,286047001.2,N
1620361715.9,286047001.2,N
1620361735.8,286046996.6,N
1620361755.6,286046998.7,N
1620361775.4,286046999.5,N
1620361795.3,286047000.9,N
1620361815.1,286047000.2,N
1620361835.9,286047002.4,N
1620361855.7,286046999.9,N
1620361875.5,286046998.2,N
1620361895.4,286046999.5,N
1620361915.2,286046998.4,N
1620361935.0,286047002.1,N
1620361935.9,286047002.1,N
1620361955.8,286047003.0,N
1620361975.6,286047002.9,N
1620361995.5,286047006.0,Y
1620362015.3,286047002.1,P
1620362035.1,286047001.8,N
1620362055.9,286047003.9,P
1620362075.7,286047003.8,N
1620362095.5,286047011.9,Y
1620362115.4,286047003.3,P
1620362135.2,286047004.0,P
1620362155.1,286047005.6,P
1620362156.0,286047005.6,Y
1620362175.8,286046997.1,P
1620362195.6,286046995.9,N
1620362215.5,286046993.7,N
1620362235.3,286046995.9,N
1620362255.2,286046996.4,N
1620362275.9,286046993.5,N
1620362295.7,286046993.4,N
1620362315.6,286046993.7,N
1620362335.4,286046996.1,N
1620362355.2,286046994.0,N
1620362375.1,286046994.6,N
1620362376.0,286046994.6,N
1620362395.8,286046994.0,N
1620362415.7,286046995.3,N
1620362435.5,286046994.1,N
1620362455.3,286046995.7,N
1620362475.2,286046995.1,N
1620362495.9,286046997.2,N
1620362515.7,286046998.7,N
1620362535.6,286046998.8,N
1620362555.4,286046999.0,N
1620362575.2,286047001.0,N
1620362595.1,286046998.7,N
1620362596.0,286046998.7,N
1620362615.8,286046999.4,N
1620362635.7,286047000.0,N
1620362655.5,286046998.5,N
1620362675.3,286046999.3,N
1620362695.2,286046995.0,N
1620362715.0,286046994.7,N
1620362715.9,286046994.7,N
1620362735.8,286046995.1,N
1620362755.6,286046997.7,N
1620362775.4,286046993.7,N
1620362795.3,286046994.5,N
1620362815.1,286046995.6,N
1620362835.8,286046994.7,N
1620362855.7,286046996.0,N
1620362875.5,286046996.9,N
1620362895.3,286046999.1,N
1620362915.2,286047001.2,N
1620362935.0,286046997.3,N
1620362935.9,286046997.3,N
1620362955.8,286046996.4,N
1620362975.6,286046998.0,N
1620362995.4,286046993.3,Y
1620363015.3,286046995.5,P
1620363035.1,286046995.0,P
1620363055.9,286046994.8,P
1620363075.7,286046993.5,Y
1620363095.5,286047002.7,P
1620363115.4,286047002.7,N
1620363135.2,286047002.7,N
1620363155.0,286047004.3,N
1620363155.9,286047004.3,N
1620363175.8,286047003.5,N
1620363195.6,286047004.4,N
1620363215.5,286047000.3,N
1620363235.3,286046999.9,N
1620363255.1,286047002.8,N
1620363275.9,286047001.1,N
1620363295.7,286046998.9,N
1620363315.5,286047001.5,N
1620363335.4,286046999.8,N
1620363355.2,286047002.0,N
1620363375.1,286046998.5,N
1620363376.0,286046998.5,N
1620363395.8,286047000.9,N
1620363415.6,286047001.6,N
1620363435.5,286047000.7,N
1620363455.3,286047000.0,N
1620363475.1,286046998.5,N
1620363495.9,286047000.5,N
1620363515.7,286047001.3,N
1620363535.6,286047007.6,Y
1620363555.4,286047004.1,P
1620363575.2,286047000.5,N
1620363595.1,286046998.1,N
1620363596.0,286046998.1,N
